Volver al catálogo

CHINASAT 9

ActivoComunicacionesGEO
NORAD 33051·PAYLOAD·🇨🇳 China

Lanzado Jun 9, 2008 desde Xichang Satellite Launch Center

Loading…

TLE

ActualizadoSource: Space-Track

Época: Sep 14, 2026, 14:14 UTC

1 33051U 08028A   26257.59347442 -.00000257  00000-0  00000-0 0  9995
2 33051   0.9912  84.0305 0005483 112.2926 103.2825  1.00273180 66935

Sigue CHINASAT 9 en tiempo real con AllMySat

Download on the App Store